Terminal Aerodrome Forecast
Issued by NWS

Home | Current Version | Previous Version | Text Only | Print | Product List | Glossary On
Versions: 1 2 3 4 5 6 7 8 9 10 11 12 13 14 15 16
000
FTAK31 PAJN 021600 AAA
TAFAGY
TAF AMD
PAGY 021610Z 0216/0312 04010KT P6SM SKC
     FM021800 04010KT P6SM SCT150
     FM030000 04008KT P6SM SCT050 BKN100
     FM030900 VRB04KT P6SM BKN040 BKN080
      AMD LTD TO CLD VIS AND WIND=

USA.gov is the U.S. government's official web portal to all federal, state and local government web resources and services.